QPF
0.00 0.00 0.00 0.00 0.01 0.01 0.00 0.01 0.01 0.01 0.01 0.01 0.01 0.01 0.00 0.01 0.01 0.01 0.04 0.06 0.07 0.07 0.06 0.05 0.03 0.02 0.02 0.02 0.01 0.01 0.01 0.00 0.01 0.00 0.01 0.02 0.02 0.02 0.02 0.03 0.05 0.04 0.06 0.04
0.01 0.00 0.00 0.00 0.00 0.00 0.00 0.01 0.01 0.01 0.01 0.01 0.01 0.01 0.01 0.01 0.01 0.01 0.03 0.07 0.10 0.10 0.09 0.06 0.05 0.05 0.02 0.01 0.01 0.00 0.01 0.00 0.00 0.00 0.01 0.01 0.02 0.01 0.01 0.02 0.02 0.03 0.04 0.04
0.00 0.00 0.00 0.00 0.00 0.00 0.00 0.00 0.00 0.00 0.01 0.01 0.02 0.03 0.01 0.01 0.01 0.02 0.03 0.07 0.11 0.11 0.09 0.07 0.06 0.05 0.03 0.01 0.00 0.00 0.00 0.00 0.00 0.00 0.00 0.01 0.01 0.01 0.01 0.01 0.01 0.03 0.04 0.03
0.00 0.00 0.00 0.00 0.00 0.00 0.00 0.00 0.00 0.00 0.00 0.01 0.02 0.02 0.01 0.01 0.02 0.03 0.04 0.06 0.09 0.10 0.08 0.08 0.05 0.04 0.02 0.01 0.01 0.01 0.01 0.00 0.00 0.00 0.00 0.00 0.00 0.01 0.01 0.01 0.01 0.02 0.02 0.02
0.00 0.00 0.00 0.00 0.00 0.00 0.00 0.00 0.00 0.00 0.00 0.01 0.01 0.02 0.01 0.01 0.02 0.03 0.02 0.03 0.06 0.06 0.03 0.04 0.04 0.03 0.01 0.01 0.01 0.01 0.01 0.01 0.01 0.01 0.00 0.00 0.01 0.01 0.01 0.02 0.02 0.02 0.01 0.01
0.00 0.00 0.00 0.00 0.00 0.00 0.00 0.00 0.00 0.00 0.01 0.02 0.03 0.02 0.02 0.01 0.01 0.02 0.02 0.03 0.05 0.04 0.02 0.03 0.03 0.02 0.01 0.01 0.01 0.01 0.01 0.02 0.02 0.02 0.01 0.01 0.01 0.01 0.01 0.02 0.02 0.01 0.01 0.01
0.00 0.00 0.00 0.00 0.00 0.00 0.00 0.00 0.01 0.01 0.02 0.04 0.04 0.02 0.01 0.01 0.01 0.02 0.04 0.07 0.11 0.05 0.02 0.02 0.03 0.03 0.02 0.01 0.00 0.01 0.01 0.01 0.02 0.03 0.04 0.03 0.03 0.02 0.02 0.02 0.02 0.01 0.01 0.02
0.00 0.00 0.00 0.00 0.00 0.00 0.00 0.00 0.00 0.01 0.01 0.01 0.02 0.04 0.03 0.01 0.01 0.01 0.01 0.02 0.03 0.01 0.01 0.01 0.01 0.01 0.01 0.01 0.01 0.01 0.01 0.01 0.01 0.05 0.10 0.08 0.05 0.03 0.03 0.03 0.02 0.02 0.03 0.03
0.00 0.00 0.00 0.00 0.00 0.00 0.00 0.00 0.00 0.00 0.01 0.01 0.03 0.03 0.02 0.01 0.01 0.01 0.02 0.02 0.02 0.01 0.01 0.01 0.01 0.01 0.01 0.01 0.00 0.01 0.01 0.01 0.01 0.05 0.15 0.12 0.05 0.03 0.02 0.02 0.02 0.02 0.02 0.02
0.00 0.00 0.00 0.00 0.00 0.00 0.00 0.00 0.00 0.00 0.01 0.02 0.03 0.02 0.01 0.01 0.01 0.01 0.02 0.02 0.01 0.01 0.01 0.01 0.01 0.01 0.00 0.00 0.00 0.00 0.00 0.01 0.01 0.05 0.10 0.06 0.02 0.01 0.02 0.02 0.01 0.01 0.02 0.02
0.00 0.01 0.00 0.00 0.00 0.00 0.00 0.00 0.00 0.00 0.01 0.01 0.01 0.01 0.01 0.00 0.01 0.01 0.01 0.01 0.01 0.01 0.01 0.01 0.01 0.01 0.01 0.00 0.00 0.00 0.00 0.01 0.00 0.01 0.01 0.01 0.01 0.01 0.01 0.01 0.01 0.01 0.02 0.02
0.00 0.02 0.01 0.00 0.00 0.00 0.00 0.00 0.00 0.00 0.00 0.01 0.00 0.01 0.01 0.01 0.01 0.01 0.00 0.01 0.01 0.01 0.01 0.01 0.01 0.01 0.01 0.01 0.01 0.01 0.01 0.01 0.01 0.02 0.02 0.02 0.02 0.02 0.02 0.02 0.02 0.03 0.04 0.04
0.00 0.00 0.00 0.00 0.00 0.00 0.00 0.00 0.00 0.00 0.00 0.00 0.01 0.01 0.01 0.01 0.01 0.01 0.00 0.00 0.02 0.05 0.03 0.03 0.02 0.02 0.02 0.02 0.02 0.02 0.02 0.02 0.03 0.03 0.02 0.03 0.03 0.02 0.02 0.02 0.03 0.06 0.06 0.05
0.00 0.00 0.00 0.00 0.00 0.00 0.00 0.00 0.00 0.00 0.00 0.00 0.01 0.01 0.01 0.01 0.01 0.01 0.01 0.01 0.05 0.08 0.05 0.03 0.02 0.02 0.03 0.04 0.02 0.02 0.02 0.02 0.03 0.03 0.03 0.03 0.03 0.02 0.03 0.03 0.05 0.07 0.07 0.05
0.00 0.00 0.00 0.00 0.00 0.00 0.00 0.00 0.00 0.00 0.00 0.00 0.01 0.01 0.01 0.01 0.01 0.01 0.02 0.02 0.06 0.10 0.08 0.05 0.05 0.06 0.04 0.04 0.03 0.02 0.02 0.02 0.03 0.03 0.03 0.03 0.03 0.03 0.04 0.04 0.06 0.08 0.07 0.05
0.00 0.00 0.00 0.00 0.00 0.00 0.00 0.00 0.00 0.00 0.00 0.01 0.01 0.01 0.01 0.01 0.02 0.01 0.02 0.04 0.06 0.09 0.12 0.12 0.10 0.10 0.07 0.07 0.06 0.03 0.02 0.03 0.02 0.02 0.02 0.02 0.03 0.04 0.05 0.06 0.07 0.08 0.06 0.05
0.01 0.01 0.01 0.00 0.00 0.01 0.00 0.00 0.00 0.00 0.00 0.01 0.01 0.02 0.02 0.03 0.03 0.02 0.02 0.04 0.05 0.11 0.13 0.10 0.08 0.07 0.07 0.07 0.06 0.04 0.04 0.03 0.03 0.02 0.01 0.02 0.03 0.04 0.05 0.05 0.05 0.04 0.04 0.04
0.01 0.01 0.00 0.00 0.01 0.01 0.01 0.01 0.00 0.00 0.00 0.01 0.01 0.02 0.02 0.03 0.03 0.03 0.04 0.06 0.09 0.10 0.07 0.05 0.05 0.05 0.06 0.08 0.07 0.06 0.05 0.04 0.03 0.02 0.01 0.02 0.03 0.04 0.05 0.05 0.05 0.05 0.04 0.04
0.01 0.01 0.01 0.01 0.01 0.01 0.01 0.01 0.01 0.01 0.01 0.01 0.01 0.02 0.02 0.02 0.03 0.03 0.04 0.07 0.11 0.09 0.06 0.05 0.06 0.09 0.11 0.10 0.09 0.07 0.05 0.05 0.04 0.02 0.01 0.01 0.02 0.02 0.03 0.04 0.05 0.05 0.05 0.05
0.01 0.01 0.01 0.01 0.01 0.01 0.01 0.02 0.02 0.01 0.02 0.02 0.01 0.01 0.02 0.04 0.05 0.05 0.07 0.12 0.12 0.14 0.13 0.12 0.12 0.10 0.07 0.06 0.05 0.05 0.05 0.04 0.03 0.02 0.01 0.02 0.02 0.03 0.04 0.05 0.06 0.07 0.06 0.05
0.01 0.01 0.01 0.01 0.02 0.02 0.01 0.02 0.02 0.02 0.02 0.02 0.02 0.02 0.02 0.02 0.04 0.07 0.09 0.09 0.07 0.10 0.15 0.16 0.13 0.09 0.07 0.04 0.04 0.04 0.04 0.03 0.02 0.02 0.02 0.02 0.02 0.04 0.05 0.06 0.07 0.07 0.06 0.05
0.02 0.02 0.03 0.03 0.03 0.03 0.02 0.02 0.04 0.03 0.02 0.02 0.02 0.03 0.03 0.03 0.03 0.05 0.09 0.10 0.07 0.09 0.09 0.08 0.08 0.07 0.06 0.05 0.04 0.04 0.04 0.04 0.04 0.04 0.04 0.05 0.05 0.05 0.06 0.06 0.06 0.06 0.04 0.03
0.02 0.02 0.03 0.04 0.04 0.03 0.02 0.04 0.04 0.02 0.02 0.02 0.02 0.04 0.05 0.05 0.05 0.05 0.06 0.07 0.06 0.06 0.06 0.06 0.05 0.04 0.04 0.05 0.05 0.06 0.07 0.07 0.06 0.06 0.07 0.07 0.07 0.07 0.06 0.06 0.06 0.05 0.04 0.03
0.02 0.02 0.04 0.05 0.05 0.03 0.02 0.03 0.04 0.02 0.01 0.01 0.02 0.04 0.09 0.09 0.06 0.05 0.05 0.07 0.06 0.04 0.04 0.05 0.04 0.04 0.05 0.07 0.07 0.07 0.07 0.06 0.05 0.04 0.04 0.04 0.05 0.04 0.03 0.04 0.04 0.04 0.03 0.02
0.01 0.01 0.03 0.04 0.03 0.02 0.01 0.02 0.02 0.02 0.01 0.01 0.01 0.01 0.02 0.04 0.05 0.04 0.03 0.04 0.04 0.04 0.04 0.05 0.05 0.04 0.04 0.04 0.05 0.05 0.06 0.06 0.05 0.05 0.05 0.04 0.04 0.03 0.03 0.02 0.02 0.02 0.02 0.02
0.01 0.02 0.02 0.02 0.01 0.01 0.01 0.01 0.01 0.01 0.01 0.01 0.00 0.01 0.01 0.02 0.02 0.02 0.03 0.03 0.02 0.02 0.02 0.02 0.02 0.02 0.03 0.03 0.04 0.04 0.05 0.05 0.05 0.04 0.03 0.04 0.03 0.02 0.02 0.03 0.03 0.02 0.02 0.01
MSLP
1010.09 1010.94 1011.57 1011.99 1012.24 1012.38 1012.46 1012.54 1012.65 1012.77 1012.89 1012.97 1012.98 1012.91 1012.77 1012.60 1012.45 1012.36 1012.38 1012.51 1012.74 1013.02 1013.31 1013.55 1013.70 1013.75 1013.71 1013.64 1013.57 1013.58 1013.70 1013.96 1014.34 1014.80 1015.28 1015.74 1016.11 1016.37 1016.50 1016.53 1016.50 1016.44 1016.42 1016.44
1010.82 1011.44 1011.85 1012.06 1012.14 1012.18 1012.24 1012.37 1012.56 1012.77 1012.97 1013.10 1013.11 1013.01 1012.80 1012.55 1012.33 1012.21 1012.23 1012.40 1012.70 1013.08 1013.45 1013.76 1013.95 1014.02 1013.97 1013.86 1013.76 1013.74 1013.86 1014.12 1014.52 1015.00 1015.50 1015.94 1016.27 1016.45 1016.49 1016.42 1016.30 1016.18 1016.11 1016.12
1011.26 1011.65 1011.81 1011.83 1011.77 1011.75 1011.83 1012.03 1012.33 1012.66 1012.96 1013.14 1013.15 1012.99 1012.70 1012.36 1012.04 1011.85 1011.84 1012.03 1012.39 1012.84 1013.32 1013.72 1013.99 1014.09 1014.07 1013.97 1013.86 1013.83 1013.94 1014.20 1014.60 1015.08 1015.58 1016.00 1016.29 1016.42 1016.39 1016.25 1016.05 1015.87 1015.77 1015.77
1011.40 1011.56 1011.52 1011.37 1011.24 1011.21 1011.35 1011.67 1012.10 1012.57 1012.97 1013.20 1013.20 1012.97 1012.57 1012.08 1011.63 1011.33 1011.25 1011.42 1011.81 1012.34 1012.91 1013.42 1013.78 1013.97 1014.00 1013.93 1013.84 1013.80 1013.90 1014.15 1014.54 1015.00 1015.48 1015.88 1016.14 1016.24 1016.17 1015.98 1015.74 1015.53 1015.41 1015.40
1011.29 1011.25 1011.06 1010.83 1010.67 1010.70 1010.95 1011.42 1012.02 1012.63 1013.12 1013.39 1013.35 1013.03 1012.48 1011.82 1011.20 1010.75 1010.56 1010.67 1011.06 1011.63 1012.29 1012.90 1013.37 1013.66 1013.78 1013.76 1013.69 1013.66 1013.74 1013.96 1014.31 1014.75 1015.20 1015.58 1015.82 1015.90 1015.82 1015.63 1015.38 1015.17 1015.04 1015.03
1011.03 1010.85 1010.57 1010.31 1010.21 1010.34 1010.74 1011.38 1012.15 1012.90 1013.47 1013.75 1013.66 1013.22 1012.50 1011.64 1010.82 1010.19 1009.85 1009.87 1010.22 1010.81 1011.52 1012.23 1012.81 1013.21 1013.41 1013.46 1013.42 1013.40 1013.46 1013.64 1013.95 1014.34 1014.75 1015.11 1015.35 1015.44 1015.38 1015.21 1014.99 1014.79 1014.66 1014.65
1010.73 1010.47 1010.16 1009.94 1009.92 1010.19 1010.76 1011.57 1012.49 1013.35 1013.98 1014.26 1014.10 1013.54 1012.65 1011.59 1010.56 1009.73 1009.23 1009.13 1009.40 1009.97 1010.71 1011.48 1012.15 1012.65 1012.94 1013.05 1013.06 1013.04 1013.08 1013.22 1013.48 1013.82 1014.20 1014.54 1014.78 1014.90 1014.87 1014.75 1014.57 1014.41 1014.31 1014.30
1010.47 1010.19 1009.90 1009.76 1009.85 1010.26 1010.98 1011.93 1012.97 1013.90 1014.57 1014.82 1014.59 1013.91 1012.87 1011.64 1010.42 1009.41 1008.75 1008.51 1008.68 1009.20 1009.93 1010.73 1011.46 1012.03 1012.39 1012.57 1012.62 1012.61 1012.64 1012.74 1012.95 1013.25 1013.59 1013.92 1014.17 1014.32 1014.35 1014.29 1014.17 1014.05 1013.97 1013.97
1010.31 1010.04 1009.82 1009.76 1009.96 1010.49 1011.31 1012.35 1013.44 1014.41 1015.07 1015.29 1015.00 1014.23 1013.09 1011.73 1010.38 1009.23 1008.42 1008.05 1008.12 1008.55 1009.23 1010.02 1010.76 1011.37 1011.79 1012.02 1012.10 1012.12 1012.14 1012.23 1012.40 1012.66 1012.98 1013.30 1013.58 1013.77 1013.86 1013.86 1013.80 1013.72 1013.67 1013.67
1010.24 1010.03 1009.88 1009.91 1010.19 1010.78 1011.65 1012.70 1013.79 1014.72 1015.34 1015.52 1015.19 1014.38 1013.18 1011.77 1010.36 1009.12 1008.22 1007.74 1007.69 1008.02 1008.62 1009.34 1010.06 1010.67 1011.12 1011.39 1011.51 1011.56 1011.60 1011.69 1011.85 1012.10 1012.41 1012.73 1013.03 1013.26 1013.40 1013.46 1013.45 1013.41 1013.37 1013.37
1010.25 1010.12 1010.05 1010.14 1010.47 1011.06 1011.89 1012.88 1013.88 1014.73 1015.28 1015.40 1015.05 1014.24 1013.07 1011.68 1010.28 1009.03 1008.08 1007.52 1007.36 1007.57 1008.05 1008.68 1009.33 1009.91 1010.35 1010.65 1010.82 1010.91 1010.99 1011.11 1011.30 1011.56 1011.87 1012.21 1012.52 1012.78 1012.97 1013.07 1013.10 1013.09 1013.06 1013.05
1010.29 1010.26 1010.27 1010.41 1010.73 1011.26 1011.99 1012.84 1013.69 1014.40 1014.83 1014.90 1014.54 1013.78 1012.69 1011.40 1010.07 1008.87 1007.93 1007.32 1007.07 1007.15 1007.49 1007.98 1008.53 1009.04 1009.45 1009.76 1009.98 1010.14 1010.28 1010.46 1010.69 1010.99 1011.33 1011.69 1012.03 1012.31 1012.52 1012.65 1012.71 1012.72 1012.70 1012.68
1010.35 1010.43 1010.52 1010.68 1010.96 1011.39 1011.95 1012.60 1013.24 1013.76 1014.06 1014.06 1013.70 1013.01 1012.04 1010.89 1009.70 1008.60 1007.70 1007.07 1006.74 1006.68 1006.86 1007.20 1007.61 1008.02 1008.40 1008.71 1008.97 1009.20 1009.43 1009.70 1010.00 1010.36 1010.74 1011.13 1011.49 1011.79 1012.02 1012.17 1012.25 1012.27 1012.25 1012.23
1010.45 1010.64 1010.80 1010.96 1011.17 1011.46 1011.83 1012.23 1012.62 1012.92 1013.06 1012.96 1012.60 1011.99 1011.16 1010.19 1009.16 1008.19 1007.36 1006.72 1006.32 1006.13 1006.15 1006.31 1006.56 1006.86 1007.17 1007.48 1007.78 1008.09 1008.43 1008.79 1009.19 1009.62 1010.06 1010.49 1010.87 1011.19 1011.43 1011.59 1011.68 1011.71 1011.71 1011.68
1010.60 1010.90 1011.11 1011.27 1011.40 1011.53 1011.67 1011.81 1011.93 1011.98 1011.93 1011.73 1011.36 1010.82 1010.12 1009.32 1008.47 1007.64 1006.89 1006.26 1005.79 1005.48 1005.33 1005.31 1005.40 1005.58 1005.82 1006.11 1006.45 1006.84 1007.27 1007.75 1008.25 1008.76 1009.27 1009.73 1010.14 1010.48 1010.73 1010.90 1011.00 1011.05 1011.07 1011.06
1010.84 1011.22 1011.48 1011.62 1011.65 1011.62 1011.53 1011.40 1011.24 1011.04 1010.79 1010.47 1010.06 1009.57 1008.99 1008.35 1007.66 1006.97 1006.30 1005.69 1005.17 1004.75 1004.44 1004.26 1004.19 1004.24 1004.40 1004.67 1005.04 1005.50 1006.02 1006.60 1007.21 1007.81 1008.37 1008.88 1009.32 1009.67 1009.94 1010.12 1010.25 1010.32 1010.37 1010.40
1011.17 1011.61 1011.88 1011.98 1011.92 1011.71 1011.40 1011.02 1010.59 1010.14 1009.69 1009.24 1008.78 1008.32 1007.83 1007.32 1006.77 1006.20 1005.62 1005.04 1004.49 1003.98 1003.55 1003.22 1003.01 1002.95 1003.03 1003.27 1003.66 1004.17 1004.77 1005.44 1006.13 1006.81 1007.43 1007.99 1008.45 1008.82 1009.10 1009.31 1009.46 1009.58 1009.66 1009.74
1011.58 1012.02 1012.27 1012.31 1012.14 1011.77 1011.26 1010.64 1009.97 1009.29 1008.65 1008.07 1007.56 1007.09 1006.67 1006.26 1005.84 1005.39 1004.89 1004.36 1003.80 1003.24 1002.72 1002.28 1001.97 1001.81 1001.83 1002.04 1002.43 1002.97 1003.64 1004.37 1005.13 1005.86 1006.53 1007.12 1007.61 1008.01 1008.31 1008.55 1008.73 1008.88 1009.02 1009.15
1012.01 1012.39 1012.57 1012.52 1012.23 1011.72 1011.02 1010.20 1009.32 1008.45 1007.65 1006.95 1006.37 1005.91 1005.53 1005.21 1004.90 1004.56 1004.16 1003.69 1003.16 1002.60 1002.04 1001.55 1001.17 1000.95 1000.92 1001.10 1001.48 1002.04 1002.73 1003.50 1004.29 1005.06 1005.77 1006.38 1006.90 1007.31 1007.63 1007.90 1008.11 1008.31 1008.50 1008.68
1012.37 1012.64 1012.71 1012.55 1012.13 1011.47 1010.62 1009.64 1008.60 1007.58 1006.65 1005.86 1005.23 1004.76 1004.43 1004.18 1003.97 1003.74 1003.45 1003.08 1002.62 1002.11 1001.57 1001.08 1000.68 1000.43 1000.38 1000.53 1000.90 1001.45 1002.14 1002.91 1003.72 1004.50 1005.21 1005.84 1006.36 1006.79 1007.13 1007.42 1007.67 1007.90 1008.13 1008.36
1012.57 1012.69 1012.62 1012.32 1011.77 1010.99 1010.02 1008.92 1007.76 1006.64 1005.63 1004.78 1004.13 1003.66 1003.37 1003.20 1003.09 1002.98 1002.81 1002.56 1002.22 1001.80 1001.34 1000.90 1000.53 1000.30 1000.24 1000.38 1000.72 1001.24 1001.91 1002.66 1003.45 1004.21 1004.91 1005.53 1006.05 1006.48 1006.84 1007.14 1007.42 1007.68 1007.94 1008.20
1012.56 1012.50 1012.27 1011.82 1011.16 1010.27 1009.22 1008.04 1006.83 1005.66 1004.61 1003.74 1003.08 1002.64 1002.39 1002.29 1002.28 1002.29 1002.26 1002.16 1001.97 1001.69 1001.35 1001.01 1000.71 1000.52 1000.48 1000.62 1000.94 1001.43 1002.05 1002.75 1003.48 1004.21 1004.87 1005.47 1005.98 1006.40 1006.76 1007.07 1007.35 1007.62 1007.90 1008.17
1012.30 1012.05 1011.66 1011.08 1010.31 1009.36 1008.27 1007.07 1005.85 1004.68 1003.64 1002.78 1002.14 1001.73 1001.52 1001.50 1001.58 1001.71 1001.83 1001.89 1001.86 1001.75 1001.57 1001.36 1001.17 1001.06 1001.06 1001.20 1001.50 1001.93 1002.49 1003.12 1003.79 1004.45 1005.06 1005.62 1006.10 1006.51 1006.86 1007.16 1007.45 1007.72 1007.99 1008.25
1011.80 1011.38 1010.84 1010.16 1009.33 1008.35 1007.26 1006.09 1004.91 1003.79 1002.79 1001.96 1001.36 1000.98 1000.83 1000.86 1001.03 1001.27 1001.52 1001.73 1001.88 1001.95 1001.94 1001.89 1001.84 1001.81 1001.87 1002.02 1002.29 1002.68 1003.16 1003.71 1004.29 1004.87 1005.42 1005.92 1006.37 1006.75 1007.09 1007.38 1007.66 1007.92 1008.17 1008.42
1011.09 1010.53 1009.89 1009.14 1008.28 1007.32 1006.28 1005.18 1004.09 1003.04 1002.12 1001.35 1000.79 1000.46 1000.34 1000.42 1000.64 1000.97 1001.33 1001.69 1002.00 1002.25 1002.41 1002.53 1002.60 1002.68 1002.80 1002.97 1003.22 1003.55 1003.95 1004.41 1004.90 1005.40 1005.88 1006.32 1006.73 1007.09 1007.40 1007.69 1007.95 1008.19 1008.43 1008.66
1010.23 1009.58 1008.87 1008.10 1007.27 1006.37 1005.42 1004.43 1003.45 1002.52 1001.68 1000.99 1000.47 1000.17 1000.07 1000.17 1000.43 1000.82 1001.27 1001.74 1002.19 1002.59 1002.92 1003.18 1003.39 1003.56 1003.73 1003.93 1004.15 1004.43 1004.76 1005.13 1005.53 1005.95 1006.36 1006.76 1007.13 1007.46 1007.77 1008.04 1008.29 1008.53 1008.74 1008.95
Thickness
5842 5823 5813 5822 5828 5827 5823 5817 5815 5830 5850 5840 5829 5826 5832 5838 5835 5830 5827 5826 5823 5822 5824 5823 5821 5817 5813 5809 5806 5803 5800 5797 5795 5790 5787 5784 5781 5782 5782 5782 5781 5779 5778 5776
5819 5814 5835 5844 5842 5835 5826 5816 5818 5831 5848 5840 5826 5825 5835 5837 5835 5835 5832 5828 5825 5821 5820 5820 5819 5816 5812 5809 5806 5803 5800 5798 5795 5793 5790 5786 5783 5782 5781 5781 5780 5779 5777 5776
5810 5828 5847 5843 5835 5827 5822 5818 5820 5822 5835 5835 5823 5812 5821 5830 5835 5835 5834 5831 5829 5826 5821 5820 5818 5815 5812 5809 5807 5805 5801 5799 5797 5794 5790 5786 5782 5780 5778 5777 5777 5778 5777 5775
5820 5839 5843 5836 5831 5829 5814 5836 5837 5831 5814 5800 5809 5781 5807 5818 5820 5825 5827 5828 5828 5828 5825 5822 5819 5815 5813 5812 5810 5807 5803 5800 5797 5794 5789 5783 5778 5774 5775 5776 5776 5776 5776 5774
5816 5835 5834 5828 5836 5840 5832 5845 5838 5831 5814 5799 5801 5784 5794 5812 5809 5817 5825 5829 5830 5831 5829 5825 5823 5820 5818 5815 5811 5807 5803 5799 5796 5793 5789 5784 5780 5777 5777 5775 5774 5773 5773 5773
5825 5844 5843 5841 5848 5850 5846 5834 5824 5812 5795 5776 5792 5784 5783 5803 5814 5822 5829 5832 5832 5831 5829 5826 5824 5821 5817 5815 5811 5807 5802 5798 5795 5792 5788 5784 5780 5777 5774 5772 5770 5770 5769 5769
5809 5827 5843 5850 5834 5838 5832 5798 5771 5767 5756 5764 5791 5786 5789 5821 5833 5832 5832 5834 5834 5832 5828 5823 5820 5817 5814 5812 5809 5805 5800 5796 5794 5790 5787 5784 5780 5777 5774 5771 5769 5767 5765 5765
5783 5791 5827 5841 5833 5821 5820 5800 5766 5752 5747 5762 5784 5780 5802 5834 5841 5842 5841 5838 5834 5830 5828 5825 5821 5818 5815 5812 5808 5804 5799 5796 5793 5789 5785 5782 5779 5776 5773 5771 5769 5766 5764 5763
5782 5789 5829 5841 5846 5834 5814 5802 5799 5772 5765 5757 5766 5785 5807 5830 5830 5832 5833 5832 5828 5828 5827 5824 5821 5817 5813 5810 5807 5804 5799 5795 5791 5788 5784 5781 5778 5774 5771 5769 5767 5765 5764 5763
5799 5788 5812 5833 5839 5835 5826 5814 5787 5769 5750 5743 5758 5769 5779 5804 5811 5819 5823 5823 5824 5825 5824 5822 5819 5815 5812 5809 5806 5803 5800 5795 5791 5787 5783 5780 5776 5773 5770 5767 5764 5762 5761 5760
5802 5783 5793 5808 5809 5807 5813 5805 5787 5767 5762 5745 5739 5760 5806 5808 5813 5815 5818 5821 5821 5821 5821 5820 5817 5814 5810 5807 5803 5799 5797 5793 5788 5784 5781 5777 5773 5770 5767 5763 5761 5759 5757 5755
5798 5777 5769 5790 5815 5826 5816 5805 5787 5765 5760 5756 5747 5763 5816 5814 5817 5817 5816 5819 5821 5820 5819 5817 5813 5809 5805 5801 5799 5796 5793 5790 5786 5782 5777 5773 5770 5767 5763 5760 5758 5755 5752 5750
5794 5770 5751 5761 5780 5799 5801 5803 5796 5779 5764 5751 5746 5764 5807 5808 5809 5812 5812 5811 5813 5812 5811 5808 5805 5802 5800 5798 5795 5792 5789 5786 5783 5779 5773 5769 5765 5762 5759 5756 5754 5751 5748 5746
5798 5764 5753 5747 5757 5776 5782 5791 5796 5780 5756 5753 5758 5768 5785 5792 5796 5800 5802 5803 5805 5804 5803 5801 5797 5796 5795 5792 5789 5788 5785 5783 5779 5774 5769 5763 5760 5758 5755 5753 5750 5747 5744 5741
5783 5761 5765 5768 5778 5783 5782 5784 5789 5782 5773 5762 5766 5768 5777 5786 5792 5794 5797 5797 5796 5793 5792 5792 5791 5788 5787 5785 5784 5782 5780 5777 5774 5768 5763 5759 5757 5754 5751 5748 5746 5743 5740 5737
5766 5757 5758 5760 5774 5775 5773 5779 5782 5780 5778 5772 5769 5766 5781 5787 5789 5786 5786 5787 5784 5783 5783 5784 5785 5782 5779 5778 5777 5775 5773 5771 5767 5762 5758 5755 5752 5748 5745 5743 5740 5737 5734 5731
5750 5746 5739 5737 5755 5758 5746 5764 5769 5766 5769 5767 5756 5764 5775 5774 5775 5774 5776 5776 5774 5773 5773 5774 5775 5775 5773 5772 5771 5768 5766 5764 5761 5756 5753 5749 5746 5742 5739 5737 5734 5731 5727 5724
5743 5734 5724 5723 5733 5720 5741 5768 5770 5761 5760 5765 5764 5766 5770 5769 5769 5771 5772 5769 5767 5767 5765 5765 5766 5766 5766 5766 5763 5762 5759 5756 5752 5748 5745 5742 5739 5735 5733 5730 5727 5724 5721 5717
5746 5732 5716 5708 5708 5717 5740 5755 5758 5750 5743 5759 5758 5761 5762 5765 5761 5757 5763 5764 5761 5761 5761 5761 5762 5761 5759 5758 5756 5752 5750 5747 5743 5740 5737 5735 5732 5728 5725 5722 5719 5717 5713 5710
5737 5729 5713 5704 5703 5700 5722 5749 5761 5750 5728 5751 5754 5752 5752 5751 5735 5740 5754 5756 5755 5755 5755 5756 5755 5753 5750 5749 5747 5743 5740 5737 5734 5732 5731 5728 5726 5722 5719 5715 5712 5710 5707 5704
5712 5708 5701 5697 5695 5703 5728 5745 5749 5719 5719 5743 5747 5746 5745 5739 5738 5743 5747 5748 5746 5747 5748 5748 5747 5743 5741 5740 5738 5734 5731 5728 5728 5725 5722 5720 5718 5715 5712 5709 5705 5701 5698 5695
5698 5693 5692 5689 5685 5692 5728 5733 5722 5719 5734 5737 5737 5739 5738 5737 5738 5737 5737 5736 5737 5737 5738 5737 5734 5733 5733 5731 5728 5724 5721 5721 5719 5716 5713 5710 5708 5706 5704 5699 5696 5693 5689 5685
5694 5695 5691 5692 5693 5710 5722 5723 5726 5728 5726 5729 5729 5732 5732 5730 5728 5728 5727 5727 5727 5726 5725 5724 5722 5721 5721 5720 5718 5713 5713 5712 5709 5704 5701 5700 5698 5695 5693 5690 5686 5683 5680 5677
5693 5698 5691 5689 5697 5706 5713 5717 5719 5721 5721 5724 5725 5726 5724 5721 5721 5719 5718 5717 5717 5716 5715 5713 5711 5708 5707 5708 5707 5704 5703 5701 5697 5693 5691 5689 5688 5685 5683 5681 5678 5675 5672 5669
5685 5687 5680 5680 5689 5695 5701 5706 5711 5714 5716 5717 5718 5719 5717 5714 5711 5710 5707 5707 5706 5705 5705 5702 5699 5697 5696 5696 5694 5694 5692 5689 5685 5682 5681 5679 5677 5675 5672 5671 5669 5667 5666 5664
5678 5677 5671 5670 5681 5680 5686 5697 5703 5704 5704 5707 5707 5707 5707 5706 5703 5701 5698 5696 5695 5694 5693 5691 5688 5686 5686 5685 5682 5682 5681 5679 5675 5671 5671 5670 5668 5666 5663 5661 5659 5659 5657 5656